MDT,Max TemperatureF,Mean TemperatureF,Min TemperatureF,Max Dew PointF,MeanDew PointF,Min DewpointF,Max Humidity, Mean Humidity, Min Humidity, Max Sea Level PressureIn, Mean Sea Level PressureIn, Min Sea Level PressureIn, Max VisibilityMiles, Mean VisibilityMiles, Min VisibilityMiles, Max Wind SpeedMPH, Mean Wind SpeedMPH, Max Gust SpeedMPH,PrecipitationIn, CloudCover, Events, WindDirDegrees
2013-9-1,82,74,66,61,58,56,78,61,43,30.03,29.98,29.91,10,10,10,21,8,25,T,2,,85
2013-9-2,90,75,60,58,54,49,84,55,26,30.01,29.94,29.86,10,10,10,15,6,18,0.00,0,,41
2013-9-3,94,77,60,57,53,47,73,47,20,29.96,29.90,29.84,10,10,10,14,5,20,0.00,0,,224
2013-9-4,97,83,68,54,50,44,57,37,17,29.99,29.94,29.89,10,10,10,24,6,29,0.00,0,,333
2013-9-5,97,80,63,54,47,38,67,40,13,30.03,29.96,29.90,10,10,10,18,6,23,0.00,0,,105
2013-9-6,96,77,57,47,40,34,55,34,12,30.00,29.91,29.83,10,10,10,16,6,20,0.00,0,,90
2013-9-7,94,78,62,49,44,37,60,37,14,29.95,29.87,29.79,10,10,10,23,7,29,0.00,0,,135
2013-9-8,95,76,57,47,43,38,60,37,14,29.87,29.75,29.65,10,10,10,22,7,28,0.00,0,,143
2013-9-9,92,77,62,55,47,39,61,39,16,29.94,29.71,29.62,10,10,5,43,10,51,0.00,0,,87
2013-9-10,83,71,59,63,56,50,87,61,34,30.18,29.95,29.81,10,9,2,25,6,32,0.08,5,Rain-Thunderstorm,279
2013-9-11,72,68,63,63,61,59,100,83,66,30.23,30.10,29.99,10,10,5,23,9,28,0.06,7,Rain,100
2013-9-12,77,70,63,63,61,59,93,77,60,30.27,30.11,29.99,10,10,8,20,7,23,0.06,7,Rain,101
2013-9-13,76,68,59,63,59,53,100,75,50,30.13,29.94,29.78,10,8,4,22,12,26,0.05,5,Rain,125
2013-9-14,83,68,52,57,53,47,100,65,30,29.98,29.82,29.68,10,8,0,22,6,26,0.00,1,Fog,305
2013-9-15,75,66,56,58,55,51,93,70,46,30.28,30.08,29.83,10,8,2,23,8,26,0.75,7,Rain-Thunderstorm,66
2013-9-16,71,63,55,59,56,54,100,81,61,30.29,30.16,29.99,10,7,1,13,7,17,0.02,7,Rain,113
2013-9-17,85,72,59,58,54,47,90,59,27,30.12,29.86,29.70,10,8,3,14,5,22,0.00,3,,174
2013-9-18,87,72,57,55,49,43,87,55,23,29.75,29.70,29.64,10,10,10,36,11,44,T,0,,272
2013-9-19,75,67,59,49,45,33,64,47,29,30.07,29.88,29.72,10,10,10,32,13,40,T,3,Rain,49
2013-9-20,75,66,56,51,49,48,77,59,41,30.21,30.04,29.91,10,10,10,14,7,17,T,4,Rain,108
2013-9-21,87,68,49,51,46,37,93,56,18,29.96,29.81,29.66,10,10,10,14,5,17,0.00,0,,102
2013-9-22,86,70,53,52,47,41,86,55,23,29.72,29.58,29.42,10,9,2,33,7,41,0.25,4,Rain-Thunderstorm,262
2013-9-23,76,63,50,51,39,27,86,51,16,29.97,29.68,29.40,10,10,10,30,12,44,T,3,Rain,292
2013-9-24,78,59,39,40,36,31,85,52,18,30.09,29.95,29.80,10,10,10,17,6,21,0.00,0,,46
2013-9-25,89,66,42,43,34,24,83,46,9,29.78,29.56,29.39,10,10,10,28,9,37,0.00,0,,173
2013-9-26,87,68,48,40,32,19,66,37,8,29.56,29.50,29.36,10,10,10,23,9,29,0.00,0,,181
2013-9-27,84,65,46,47,37,18,71,45,18,29.88,29.60,29.44,10,10,9,36,14,51,0.00,1,,226
2013-9-28,73,55,36,37,26,16,89,51,12,30.11,30.03,29.89,10,10,10,17,6,21,0.00,0,,70
2013-9-29,83,60,37,30,21,13,64,36,8,30.06,29.89,29.73,10,10,10,29,10,36,0.00,0,,251
2013-9-30,86,70,54,32,27,14,33,22,11,29.94,29.70,29.59,10,10,10,24,6,29,0.00,0,,288